Home > Weather > Ely > Past weeks

Flag for United Kingdom Weather for the Past 2 Weeks in Ely, England, United Kingdom

Now
61 °F

Partly sunny.


Feels Like: 61 °F
Forecast: 45 / 57 °F
Wind: 14 mph from Southwest

Location: Mildenhall Royal Air Force Base

Current Time: May 1, 2016 at 3:47:23 PM

Latest Report: May 1, 2016 at 2:58 PM


Visibility: N/A

Pressure: 30.29 "Hg

Humidity: 34%

Dew Point: 32 °F

Location of ElyLocation

Historic Weather in Ely — Graph

°F

Ely Temperature Yesterday

Maximum temperature yesterday: 54 °F (at 2:58 PM)
Minimum temperature yesterday: 32 °F (at 4:58 AM)
Average temperature yesterday: 44 °F

High & Low Weather Summary for the Past Weeks

 TemperatureHumidityPressure
High61 °F (May 1, 2:58 PM)100% (Apr 16, 8:58 PM)30.49 "Hg (Apr 16, 8:58 PM)
Low30 °F (Apr 28, 4:58 AM)34% (May 1, 1:58 PM)29.67 "Hg (Apr 26, 3:58 AM)
Average44 °F78%30.05 "Hg
* Reported Apr 16 2:58 PM — May 1 2:58 PM, Ely, Weather by CustomWeather, © 2016

Note: Actual official high and low records may vary slightly from our data, if they occured in-between our weather recording intervals... More about our weather records

Advertising

Ely Weather History for the Previous 24 Hours

Scroll right to see more
 ConditionsComfort  
Time TempWeatherWind HumidityBarometerVisibility
2:58 PM
Sun, May 1
61 °FPartly sunny.14 mph34%30.29 "HgN/A
1:58 PM60 °FPassing clouds.12 mph34%30.30 "HgN/A
12:58 PM59 °FSunny.9 mph42%30.32 "HgN/A
11:58 AM56 °FPassing clouds.12 mph46%30.33 "HgN/A
10:58 AM55 °FPassing clouds.10 mph46%30.34 "HgN/A
9:58 AM53 °FSunny.12 mph58%30.35 "HgN/A
8:58 AM50 °FSunny.8 mph70%30.36 "HgN/A
7:58 AM43 °FSunny.5 mph94%30.36 "HgN/A
6:58 AM37 °FSunny.3 mph100%30.35 "HgN/A
5:58 AM32 °FClear.2 mph100%30.34 "HgN/A
4:58 AM34 °FClear.2 mph100%30.33 "HgN/A
3:58 AM34 °FClear.1 mph99%30.33 "HgN/A
2:58 AM35 °FClear.2 mph99%30.33 "HgN/A
1:58 AM36 °FClear.2 mph98%30.32 "HgN/A
12:58 AM37 °FClear.3 mph97%30.31 "HgN/A
11:58 PM
Sat, Apr 30
39 °FClear.3 mph95%30.31 "HgN/A
10:58 PM41 °FClear.3 mph93%30.30 "HgN/A
9:58 PM41 °FClear.3 mph87%30.29 "HgN/A
8:58 PM42 °FSunny.8 mph78%30.27 "HgN/A
7:58 PM47 °FSunny.6 mph63%30.24 "HgN/A
6:58 PM51 °FSunny.6 mph49%30.22 "HgN/A
5:58 PM53 °FPartly sunny.8 mph53%30.21 "HgN/A
4:58 PM52 °FScattered clouds.9 mph53%30.19 "HgN/A
3:58 PM54 °FSunny.18 mph51%30.18 "HgN/A
Weather by CustomWeather, © 2016

See weather overviewHow to use our weather pages